Location: Trois-Rivi�res
(46.3500°N, 72.5500°W)
Time: 01:41:04
(UTC-05:00)

Vanguard 1 - All Passes

Search period start: 20 January 2018 00:00
Search period end: 30 January 2018 00:00
Orbit: 649 x 3834 km, 34.3° (Epoch: 18 January)

Date Brightness Start Highest point End Pass type
(mag) Time Alt. Az. Time Alt. Az. Time Alt. Az.
20 Jan - 00:00:25 10° SW 00:07:32 37° SSE 00:19:42 10° E visible
20 Jan - 02:18:46 10° WSW 02:28:40 48° S 02:46:01 10° ESE visible
20 Jan - 04:39:05 10° W 04:51:33 37° SSW 05:10:10 10° SE visible
20 Jan - 07:04:01 10° WSW 07:14:38 18° SW 07:27:07 10° S daylight
20 Jan - 22:05:00 10° S 22:09:03 16° SE 22:14:25 10° ESE night (unlit)
21 Jan - 00:20:51 10° SW 00:28:13 41° SSE 00:41:07 10° ESE visible
21 Jan - 02:39:35 10° WSW 02:49:40 46° S 03:07:02 10° ESE visible
21 Jan - 05:00:26 10° W 05:12:34 32° SSW 05:29:59 10° SSE visible
21 Jan - 07:29:04 10° WSW 07:35:25 12° SW 07:42:23 10° SSW daylight
21 Jan - 22:24:31 10° SSW 22:29:23 22° SE 22:36:25 10° E night (unlit)
22 Jan - 00:41:25 10° WSW 00:49:00 43° S 01:02:26 10° ESE visible
22 Jan - 03:00:29 10° WSW 03:10:42 42° SSW 03:27:50 10° SE visible
22 Jan - 05:22:05 10° W 05:33:33 26° SSW 05:49:15 10° SSE visible
22 Jan - 22:44:30 10° SSW 22:49:50 27° SSE 22:58:02 10° E night (unlit)
23 Jan - 01:02:04 10° WSW 01:09:51 44° S 01:23:41 10° ESE visible
23 Jan - 03:21:30 10° WSW 03:31:43 38° SSW 03:48:21 10° SE visible
23 Jan - 05:44:17 10° WSW 05:54:31 20° SW 06:07:44 10° S visible
23 Jan - 23:04:45 10° SW 23:10:24 31° SSE 23:19:29 10° ESE night (unlit)
24 Jan - 01:22:48 10° WSW 01:30:46 43° S 01:44:47 10° ESE visible
24 Jan - 03:42:40 10° WSW 03:52:45 33° SSW 04:08:31 10° SSE visible
24 Jan - 06:07:36 10° WSW 06:15:27 15° SW 06:24:50 10° S visible
24 Jan - 21:09:55 10° SSE 21:12:13 12° SE 21:14:54 10° ESE night (unlit)
24 Jan - 23:25:10 10° SW 23:31:03 35° SSE 23:40:48 10° ESE night (unlit)
25 Jan - 01:43:36 10° WSW 01:51:42 40° S 02:05:43 10° SE visible
25 Jan - 04:04:04 10° WSW 04:13:47 27° SSW 04:28:12 10° SSE visible
25 Jan - 21:29:05 10° S 21:32:37 17° SSE 21:37:08 10° ESE night (unlit)
25 Jan - 23:45:43 10° SW 23:51:48 37° S 00:02:01 10° ESE visible
26 Jan - 02:04:31 10° WSW 02:12:40 36° S 02:26:26 10° SE visible
26 Jan - 04:25:52 10° WSW 04:34:48 22° SSW 04:47:16 10° SSE visible
26 Jan - 21:48:59 10° SSW 21:53:05 22° SSE 21:58:46 10° ESE night (unlit)
27 Jan - 00:06:21 10° WSW 00:12:36 37° S 00:23:08 10° ESE visible
27 Jan - 02:25:32 10° WSW 02:33:39 32° SSW 02:46:50 10° SE visible
27 Jan - 04:48:24 10° WSW 04:55:48 16° SSW 05:05:18 10° S visible
27 Jan - 22:09:11 10° SW 22:13:39 26° SSE 22:20:07 10° ESE night (unlit)
28 Jan - 00:27:06 10° WSW 00:33:27 36° S 00:44:08 10° ESE visible
28 Jan - 02:46:46 10° WSW 02:54:39 27° SSW 03:06:51 10° SSE visible
28 Jan - 05:13:21 10° SW 05:16:49 11° SW 05:20:39 10° SSW visible
28 Jan - 22:29:36 10° SW 22:34:18 29° SSE 22:41:21 10° ESE night (unlit)
29 Jan - 00:47:55 10° WSW 00:54:20 33° S 01:04:56 10° SE visible
29 Jan - 03:08:18 10° WSW 03:15:40 22° SSW 03:26:20 10° SSE visible
29 Jan - 20:33:40 10° S 20:36:01 13° SSE 20:38:42 10° ESE night (unlit)
29 Jan - 22:50:09 10° SW 22:55:01 30° S 23:02:26 10° ESE night (unlit)
